Location: El Águila
(10.4167°N, 66.7167°W)
Time: 15:24:18
(UTC+00:00)

CZ-3C R/B - Pass Details

Date: 06 April 2023
Orbit: 253 x 32126 km, 20.0° (Epoch: 28 May)

Event Time Altitude Azimuth Distance (km) Brightness Sun altitude
Rises 23:58:55 0° 243° (WSW) 5,567 7.3 -20.6°
Reaches altitude 10° 00:00:59 10° 242° (WSW) 5,248 7.0 -21.1°
Maximum altitude 07:22:43 80° 39° (NE) 21,175 9.0 -43.7°
Drops below altitude 10° 08:47:43 10° 104° (ESE) 7,550 7.9 -23.5°
Sets 08:50:50 0° 105° (ESE) 7,605 8.2 -22.8°
